Regional Weather Roundup
Issued by NWS

Home | Current Version | Previous Version | Text Only | Print | Product List | Glossary On
Versions: 1 2 3 4 5 6 7 8 9 10 11 12 13 14 15 16 17 18 19 20 21 22 23 24 25 26 27 28 29 30 31 32 33 34 35 36 37 38 39 40 41 42 43 44 45 46 47 48 49 50
000
ASUS43 KMKX 211421
RWRWI

WISCONSIN REGIONAL WEATHER ROUNDUP
NATIONAL WEATHER SERVICE MILWAUKEE/SULLIVAN WI
800 AM CST SUN DEC 21 2014

NOTE: "FAIR" INDICATES FEW OR NO CLOUDS BELOW 12,000 FEET WITH NO
SIGNIFICANT WEATHER AND/OR OBSTRUCTIONS TO VISIBILITY.

WIZ001-002-006>008-014>016-023>028-211500-
NORTHWEST WISCONSIN

CITY           SKY/WX    TMP DP  RH WIND       PRES   REMARKS
SUPERIOR ARPT  CLOUDY    32  29  88 S7        29.93F WCI  26
ASHLAND        CLOUDY    31  27  85 SE3       29.96F
HAYWARD        CLOUDY    30  27  88 S9G20     29.93F FOG     WCI  22
SIREN          CLOUDY    32  30  92 S8        29.92F FOG     WCI  24
CUMBERLAND     CLOUDY    30  30 100 SE12G17   29.93F FOG     WCI  21
RICE LAKE      CLOUDY    31  29  94 SE13      29.96F FOG     WCI  21
CHETEK         CLOUDY    30  29  96 E10G16    29.95F FOG     WCI  21
LADYSMITH      CLOUDY    31  29  92 SE10      29.98F FOG     WCI  22
EAU CLAIRE     CLOUDY    32  28  85 SE8       29.97F FOG     WCI  25
MENOMONIE      CLOUDY    32  31  96 SE10      29.97S FOG     WCI  24
NEW RICHMOND   CLOUDY    32  32 100 SE12      29.92F FOG     WCI  23
OSCEOLA        CLOUDY    32  32 100 SE10      29.94F FOG     WCI  24
$$

WIZ003>005-009-010-017-018-211500-
NORTH CENTRAL WISCONSIN

CITY           SKY/WX    TMP DP  RH WIND       PRES   REMARKS
MANITOWISH WTR CLOUDY    27  27 100 S8        29.98F FOG     WCI  19
ARBOR VITAE    CLOUDY    29  28  93 SE9       29.99F FOG     WCI  21
WOODRUFF       CLOUDY    29  28  93 SE9       29.99F FOG     WCI  21
RHINELANDER    CLOUDY    27  26  96 SE7       30.01F FOG     WCI  19
EAGLE RIVER    FOG       27  27 100 S5        30.01F VSB 1   WCI  22
LAND O LAKES   CLOUDY    28  27  99 S7        30.01F FOG     WCI  20
PHILLIPS       CLOUDY    29  27  91 SE8       29.98S WCI  21
TOMAHAWK       CLOUDY    28  26  94 CALM      30.01F FOG
MEDFORD        CLOUDY    28  27  96 SE9G16    30.00F FOG     WCI  19
MERRILL        CLOUDY    29  28  98 SE7       30.03F FOG     WCI  22
$$

WIZ029-030-035-036-043>047-211500-
CENTRAL WISCONSIN

CITY           SKY/WX    TMP DP  RH WIND       PRES   REMARKS
WAUSAU         CLOUDY    29  27  92 SE10      30.02F FOG     WCI  20
MOSINEE        CLOUDY    28  28 100 SE8       30.05F FOG     WCI  20
MARSHFIELD     CLOUDY    30  28  92 S10       30.02F FOG     WCI  21
STEVENS POINT  CLOUDY    28  27  96 SE7       30.06F FOG     WCI  21
WAUPACA        CLOUDY    32  29  90 SE6       30.10F FOG     WCI  26
WAUTOMA        CLOUDY    30  30 100 SE8       30.09F FOG     WCI  23
WISC RAPIDS    CLOUDY    30  27  88 SE9       30.06F FOG     WCI  22
CAMP DOUGLAS   CLOUDY    32  32 100 SE8       30.05S FOG     WCI  25
$$

WIZ011>013-019>022-031-037>040-048>050-211500-
NORTHEAST WISCONSIN

CITY           SKY/WX    TMP DP  RH WIND       PRES   REMARKS
ANTIGO         FOG       26  26 100 SE10      30.04F VSB 1/2 WCI  16
SHAWANO        CLOUDY    32  28  86 S3        30.11F FOG
OCONTO         CLOUDY    30  28  92 SE5       30.13F WCI  26
STURGEON BAY   CLOUDY    30  25  80 S9        30.15F WCI  22
GREEN BAY      CLOUDY    31  28  89 SE7       30.13F FOG     WCI  24
MANITOWOC      CLOUDY    33  30  88 S12       30.15F FOG     WCI  24
APPLETON       CLOUDY    30  30 100 S9        30.12F FOG     WCI  22
CLINTONVILLE   CLOUDY    32  28  86 S7        30.11S FOG     WCI  26
OSHKOSH        CLOUDY    32  28  85 S9        30.12F FOG     WCI  24
$$

WIZ032>034-041-042-053>061-211500-
SOUTHWEST WISCONSIN

CITY           SKY/WX    TMP DP  RH WIND       PRES   REMARKS
LA CROSSE      CLOUDY    35  32  88 S10       30.02F FOG     WCI  27
SPARTA         CLOUDY    33  32  96 S5        30.05S FOG     WCI  28
VIROQUA        CLOUDY    32  32 100 SE10      30.01F VSB 1/4 WCI  23
BOSCOBEL       CLOUDY    36  32  85 VRB5      30.06F FOG     WCI  32
PRAIRIE DU CHI CLOUDY    35  33  90 SE8       30.04F FOG     WCI  29
PLATTEVILLE    CLOUDY    33  33  98 SE13      30.08S WCI  24
$$

WIZ056-057-062-063-064-067-068-211500-
SOUTH CENTRAL WISCONSIN

CITY           SKY/WX    TMP DP  RH WIND       PRES   REMARKS
REEDSBURG      CLOUDY    31  31  99 SE6       30.07F FOG     WCI  26
BARABOO/DELLS  CLOUDY    32  31  96 S7        30.07F FOG     WCI  25
LONE ROCK      CLOUDY    37  32  82 SE12      30.08F HAZE    WCI  29
MINERAL POINT  FOG       34  32  93 S12       30.07S VSB 3/4 WCI  25
MADISON        CLOUDY    32  30  92 S13       30.10F FOG     WCI  22
MIDDLETON      CLOUDY    33  33  99 S12       30.10F WCI  25
WATERTOWN      CLOUDY    32  32 100 S7        30.13F FOG     WCI  25
MONROE         CLOUDY    32  32 100 S9        30.10F FOG     WCI  24
JANESVILLE     CLOUDY    34  30  86 S9        30.14F FOG     WCI  26
$$

WIZ051-052-058>065-066-070>072-211500-
SOUTHEAST WISCONSIN

CITY           SKY/WX    TMP DP  RH WIND       PRES   REMARKS
MILWAUKEE      CLOUDY    32  26  78 S10       30.17F WCI  24
WAUKESHA       CLOUDY    30  27  86 S7        30.16F FOG     WCI  23
MILWAUKEE/TIMM CLOUDY    32  27  80 S6        30.17F HAZE    WCI  26
RACINE         CLOUDY    33  27  78 S9        30.19F WCI  25
BURLINGTON     CLOUDY    31  28  89 S6        30.16F WCI  25
KENOSHA        CLOUDY    33  28  81 S8        30.18F WCI  26
FOND DU LAC    CLOUDY    32  28  85 S10       30.12F FOG     WCI  24
SHEBOYGAN      CLOUDY    32  28  85 S7        30.15F FOG     WCI  26
WEST BEND      CLOUDY    32  28  86 S6        30.14F FOG     WCI  26
JUNEAU         CLOUDY    31  30  95 SE13      30.13F FOG     WCI  21
$$

LSZ147-162-211500-
LAKE SUPERIOR

STATION/POSITION TIME  TEMP    WIND        PRES    WAVE
                       AIR SEA DIR/SP/G            HT/PER
                 (UTC) (F)     (DEG/KT/KT) (MB)    (FT/S)
DEVILS ISLAND    1400   32     160/  6/  8 1015.7F
PORT WING        1300   32     120/  2/  4 1014.9F
SAXON HARBOR     1340   32     160/  3/  6 1015.2F
$$

LMZ867-665-643>646-211500-
LAKE MICHIGAN

STATION/POSITION TIME  TEMP    WIND        PRES    WAVE
                       AIR SEA DIR/SP/G            HT/PER
                 (UTC) (F)     (DEG/KT/KT) (MB)    (FT/S)
CHAMBERS ISLAND  1300   32     160/  3/  7 1021.3F
NORTHPORT PIER   1338   31     180/  2/  4 1021.0F
SISTER BAY       1343          170/  7/  9   N/A
ALGOMA LAKESHORE 1214          240/  8/ 10   N/A
KEWAUNEE LAKESHO 1300   32     190/  9/ 10 1020.5F
SHEBOYGAN LAKESH 1400   35 34  180/ 15/ 17 1022.0F
PORT WASHINGTON  1340   34     180/  8/ 13 1022.4F
MILWAUKEE LAKESH 1400   33     180/  7/  9   N/A
KENOSHA   LAKESH 1400   34     180/  7/ 11 1022.0F
$$

TC  - TEMPERATURE IN CELSIUS
VSB - VISIBILITY IN STATUTE MILES
WCI - WIND CHILL INDEX
HX  - HEAT INDEX




USA.gov is the U.S. government's official web portal to all federal, state and local government web resources and services.